Noatak, AK

12:49 PM AKST on December 13, 2017 (GMT -0900)
Noatak

Weather History for PAWN - August, 2014

Change the Weather History Date:

Friday, August 29, 2014

  Actual Average Record
Temperature  
Mean Temperature 37 °F -  
Max Temperature 44 °F 53 °F 80 °F (2007)
Min Temperature 30 °F 37 °F 24 °F (2013)
Degree Days  
Heating Degree Days 28    
Moisture  
Dew Point 30 °F    
Average Humidity 76    
Maximum Humidity 87    
Minimum Humidity 61    
Precipitation  
Precipitation 0.00 in - - ()
Sea Level Pressure  
Sea Level Pressure 29.70 in    
Wind  
Wind Speed 7 mph (West)    
Max Wind Speed 20 mph    
Max Gust Speed 24 mph    
Visibility 10 miles    
Events      
Averages and records for this station are not official NWS values.
T = Trace of Precipitation, MM = Missing Value Source: NWS Daily Summary

Daily Weather History Graph

Daily Weather History Graph

Search for Another Location

Airport or City:

Trip Planner

Search our weather history database for the weather conditions in past years. The results will help you decide how hot, cold, wet, or windy it might be!

Date:

Astronomy

Aug. 29, 2014 Rise Set
Actual Time 7:10 AM AKDT 10:32 PM AKDT
Civil Twilight 6:04 AM AKDT 11:37 PM AKDT
Nautical Twilight 4:07 AM AKDT 1:28 AM AKDT
Astronomical Twilight Sun does not rise Sun does not rise
Moon 1:20 PM AKDT (8/29) 10:21 PM AKDT (8/29)
Length of Visible Light 17h 33m
Length of Day
15h 22m
Waxing Crescent, 16% of the Moon is Illuminated
Aug 29
Waxing Crescent
Sep 2
First Quarter
Sep 8
Full
Sep 15
Last Quarter
Sep 23
New

Hourly Weather History & Observations

Time (AKDT) Temp. Windchill Dew Point Humidity Pressure Visibility Wind Dir Wind Speed Gust Speed Precip Events Conditions
12:16 AM 37.4 °F 31.4 °F 30.2 °F 75% 29.67 in 10.0 mi West 8.1 mph - N/A   Overcast
12:36 AM 35.6 °F 29.9 °F 30.2 °F 81% 29.67 in 10.0 mi West 6.9 mph - N/A   Overcast
12:56 AM 35.6 °F - 30.2 °F 81% 29.67 in 10.0 mi Calm Calm - N/A   Overcast
1:16 AM 35.6 °F 32.8 °F 30.2 °F 81% 29.67 in 10.0 mi West 3.5 mph - N/A   Overcast
1:36 AM 35.6 °F 29.2 °F 30.2 °F 81% 29.67 in 10.0 mi West 8.1 mph - N/A   Mostly Cloudy
1:56 AM 35.6 °F 29.2 °F 30.2 °F 81% 29.67 in 10.0 mi WSW 8.1 mph - N/A   Mostly Cloudy
2:16 AM 35.6 °F 28.6 °F 30.2 °F 81% 29.68 in 10.0 mi West 9.2 mph - N/A   Mostly Cloudy
2:36 AM 35.6 °F 30.7 °F 30.2 °F 81% 29.68 in 10.0 mi WSW 5.8 mph - N/A   Mostly Cloudy
2:56 AM 33.8 °F 29.6 °F 30.2 °F 87% 29.68 in 10.0 mi West 4.6 mph - N/A   Overcast
3:16 AM 33.8 °F - 28.4 °F 81% 29.67 in 10.0 mi Calm Calm - N/A   Scattered Clouds
3:36 AM 33.8 °F 30.8 °F 28.4 °F 81% 29.67 in 10.0 mi West 3.5 mph - N/A   Mostly Cloudy
3:56 AM 32.0 °F 25.6 °F 28.4 °F 87% 29.67 in 10.0 mi SW 6.9 mph - N/A   Overcast
4:16 AM 33.8 °F 29.6 °F 28.4 °F 81% 29.67 in 10.0 mi WSW 4.6 mph - N/A   Overcast
4:36 AM 35.6 °F 29.2 °F 30.2 °F 81% 29.67 in 10.0 mi West 8.1 mph - N/A   Mostly Cloudy
4:56 AM 35.6 °F 29.2 °F 32.0 °F 87% 29.67 in 10.0 mi West 8.1 mph - N/A   Mostly Cloudy
5:16 AM 35.6 °F 28.6 °F 30.2 °F 81% 29.68 in 10.0 mi West 9.2 mph - N/A   Mostly Cloudy
5:36 AM 35.6 °F 28.0 °F 30.2 °F 81% 29.68 in 10.0 mi West 10.4 mph - N/A   Scattered Clouds
5:56 AM 33.8 °F 25.3 °F 30.2 °F 87% 29.69 in 10.0 mi West 11.5 mph - N/A   Mostly Cloudy
6:16 AM 33.8 °F 26.4 °F 30.2 °F 87% 29.69 in 10.0 mi West 9.2 mph - N/A   Mostly Cloudy
6:36 AM 33.8 °F 27.0 °F 28.4 °F 81% 29.69 in 10.0 mi West 8.1 mph - N/A   Partly Cloudy
6:56 AM 32.0 °F 25.6 °F 28.4 °F 87% 29.69 in 10.0 mi West 6.9 mph - N/A   Clear
7:16 AM 30.2 °F 25.4 °F 26.6 °F 86% 29.69 in 10.0 mi West 4.6 mph - N/A   Clear
7:36 AM 30.2 °F 22.6 °F 26.6 °F 86% 29.70 in 10.0 mi WSW 8.1 mph - N/A   Clear
7:56 AM 30.2 °F 24.3 °F 26.6 °F 86% 29.70 in 10.0 mi West 5.8 mph - N/A   Clear
8:16 AM 30.2 °F 25.4 °F 26.6 °F 86% 29.70 in 10.0 mi WSW 4.6 mph - N/A   Partly Cloudy
8:36 AM 33.8 °F 29.6 °F 28.4 °F 81% 29.70 in 10.0 mi West 4.6 mph - N/A   Scattered Clouds
8:56 AM 33.8 °F 29.6 °F 28.4 °F 81% 29.70 in 10.0 mi West 4.6 mph - N/A   Overcast
9:16 AM 33.8 °F 29.6 °F 30.2 °F 87% 29.70 in 10.0 mi West 4.6 mph - N/A   Scattered Clouds
9:36 AM 35.6 °F 32.8 °F 30.2 °F 81% 29.69 in 10.0 mi West 3.5 mph - N/A   Clear
9:56 AM 37.4 °F 32.1 °F 32.0 °F 81% 29.70 in 10.0 mi SW 6.9 mph - N/A   Mostly Cloudy
10:16 AM 37.4 °F 34.9 °F 32.0 °F 81% 29.70 in 10.0 mi West 3.5 mph - N/A   Overcast
10:36 AM 37.4 °F 33.8 °F 32.0 °F 81% 29.69 in 10.0 mi West 4.6 mph - N/A   Mostly Cloudy
10:56 AM 37.4 °F 30.8 °F 33.8 °F 87% 29.70 in 10.0 mi West 9.2 mph - N/A   Overcast
11:16 AM 37.4 °F 32.8 °F 32.0 °F 81% 29.70 in 10.0 mi WSW 5.8 mph - N/A   Mostly Cloudy
11:36 AM 39.2 °F 34.2 °F 33.8 °F 81% 29.70 in 10.0 mi WSW 6.9 mph - N/A   Overcast
11:56 AM 41.0 °F 38.0 °F 33.8 °F 76% 29.70 in 10.0 mi West 4.6 mph - N/A   Overcast
12:16 PM 41.0 °F 37.1 °F 33.8 °F 76% 29.70 in 10.0 mi WNW 5.8 mph - N/A   Overcast
12:36 PM 42.8 °F 38.0 °F 32.0 °F 66% 29.70 in 10.0 mi WNW 8.1 mph - N/A   Overcast
12:56 PM 42.8 °F 37.5 °F 32.0 °F 66% 29.70 in 10.0 mi West 9.2 mph - N/A   Overcast
1:16 PM 44.6 °F 40.2 °F 32.0 °F 61% 29.70 in 10.0 mi NW 8.1 mph - N/A   Overcast
1:36 PM 44.6 °F 38.8 °F 32.0 °F 61% 29.70 in 10.0 mi NW 11.5 mph - N/A   Overcast
1:56 PM 42.8 °F 38.0 °F 30.2 °F 61% 29.70 in 10.0 mi WNW 8.1 mph - N/A   Overcast
2:16 PM 41.0 °F 34.7 °F 32.0 °F 70% 29.71 in 10.0 mi WNW 10.4 mph 18.4 mph N/A   Mostly Cloudy
2:36 PM 42.8 °F 37.5 °F 33.8 °F 70% 29.71 in 10.0 mi WNW 9.2 mph - N/A   Overcast
2:56 PM 42.8 °F 35.4 °F 30.2 °F 61% 29.71 in 10.0 mi WNW 15.0 mph - N/A   Overcast
3:16 PM 42.8 °F 37.0 °F 30.2 °F 61% 29.71 in 10.0 mi West 10.4 mph - N/A   Overcast
3:36 PM 42.8 °F 37.0 °F 30.2 °F 61% 29.71 in 10.0 mi West 10.4 mph - N/A   Overcast
3:56 PM 41.0 °F 34.3 °F 30.2 °F 65% 29.72 in 10.0 mi NW 11.5 mph - N/A   Overcast
4:16 PM 42.8 °F 35.1 °F 30.2 °F 61% 29.72 in 10.0 mi West 16.1 mph 20.7 mph N/A   Overcast
4:36 PM 42.8 °F 35.1 °F 30.2 °F 61% 29.72 in 10.0 mi West 16.1 mph 19.6 mph N/A   Overcast
4:56 PM 42.8 °F 36.2 °F 30.2 °F 61% 29.72 in 10.0 mi West 12.7 mph - N/A   Overcast
5:16 PM 42.8 °F 36.6 °F 30.2 °F 61% 29.72 in 10.0 mi WSW 11.5 mph - N/A   Overcast
5:36 PM 42.8 °F 35.8 °F 30.2 °F 61% 29.72 in 10.0 mi West 13.8 mph - N/A   Overcast
5:56 PM 39.2 °F 33.0 °F 32.0 °F 75% 29.73 in 9.0 mi West 9.2 mph - N/A   Mostly Cloudy
6:16 PM 42.8 °F 36.2 °F 33.8 °F 70% 29.72 in 10.0 mi West 12.7 mph - N/A   Overcast
6:36 PM 41.0 °F 32.8 °F 30.2 °F 65% 29.72 in 10.0 mi West 16.1 mph 24.2 mph N/A   Overcast
6:56 PM 42.8 °F 36.6 °F 32.0 °F 66% 29.73 in 10.0 mi WNW 11.5 mph 19.6 mph N/A   Overcast
7:16 PM 42.8 °F 38.6 °F 32.0 °F 66% 29.72 in 10.0 mi WNW 6.9 mph - N/A   Overcast
7:36 PM 41.0 °F 31.9 °F 32.0 °F 70% 29.72 in 10.0 mi West 19.6 mph 23.0 mph N/A   Overcast
7:56 PM 39.2 °F 35.9 °F 32.0 °F 75% 29.73 in 10.0 mi WNW 4.6 mph - N/A   Scattered Clouds
8:16 PM 39.2 °F 34.2 °F 32.0 °F 75% 29.73 in 10.0 mi West 6.9 mph - N/A   Scattered Clouds
8:36 PM 39.2 °F 35.0 °F 32.0 °F 75% 29.73 in 10.0 mi West 5.8 mph - N/A   Overcast
8:56 PM 39.2 °F 34.2 °F 30.2 °F 70% 29.73 in 10.0 mi West 6.9 mph - N/A   Mostly Cloudy
9:16 PM 39.2 °F 34.2 °F 30.2 °F 70% 29.73 in 10.0 mi West 6.9 mph - N/A   Overcast
9:36 PM 37.4 °F 31.4 °F 30.2 °F 75% 29.73 in 10.0 mi West 8.1 mph - N/A   Overcast
9:56 PM 37.4 °F 30.8 °F 30.2 °F 75% 29.73 in 10.0 mi West 9.2 mph - N/A   Overcast
10:16 PM 37.4 °F 30.8 °F 30.2 °F 75% 29.72 in 10.0 mi West 9.2 mph - N/A   Overcast
10:36 PM 35.6 °F 29.2 °F 30.2 °F 81% 29.73 in 10.0 mi West 8.1 mph - N/A   Overcast
10:56 PM 33.8 °F 27.0 °F 28.4 °F 81% 29.73 in 10.0 mi West 8.1 mph - N/A   Mostly Cloudy
11:16 PM 33.8 °F 27.7 °F 30.2 °F 87% 29.72 in 10.0 mi West 6.9 mph - N/A   Overcast
11:36 PM 35.6 °F 30.7 °F 30.2 °F 81% 29.73 in 10.0 mi West 5.8 mph - N/A   Overcast
11:56 PM 35.6 °F 32.8 °F 30.2 °F 81% 29.73 in 10.0 mi West 3.5 mph - N/A   Overcast